Starlink 2340

operational
NORAD ID: 47882 Int'l Des: 2021-021 Owner: SPXS Country: US Constellation: starlink
LEOCIRCULAR

关于 Starlink 2340

正在加载描述...

实时位置

正在加载3D地球...

即将过境

高度历史

Altitude vs Time

uPlot chart will show altitude changes over time

两行轨道根数

1 47882U 21021Y 25305.66668981 .00221250 00000-0 18086-2 0 9997
2 47882 53.0376 44.9710 0005926 323.2049 8.1526 15.69343997 6010
Epoch: Nov 1, 2025 • Age: 11 hours

当前状态

高度 363.5 km
速度 7.70 km/s
星下点 39.38°N, 6.7°W
发射日期 Mar 14, 2021
运行时间 4.6 years
类型 internet

技术详情

分类 Payload
质量 260.00 kg
干质量 248.00 kg
总质量 260.00 kg
长度 0.20 m
直径 2.80 m
跨度 9.00 m
形状 Box + pan
制造商 SPXS
平台类型 Starlink
阶段状态 In Orbit
所有者/国家 SPXS/US

大型星座

Loading constellations...